Time,TemperatureF,DewpointF,PressureIn,WindDirection,WindDirectionDegrees,WindSpeedMPH,WindSpeedGustMPH,Humidity,HourlyPrecipIn,Conditions,Clouds,dailyrainin,SolarRadiationWatts/m^2,SoftwareType,DateUTC
2013-02-06 00:00:00,25.2,19.3,29.96,SSW,194,3.0,8.0,78,0.00,,---,0.00,0.00,VWS V14.01,2013-02-06 05:00:00,
2013-02-06 00:27:00,26.1,19.6,29.97,SSW,205,2.0,8.0,76,0.00,,---,0.00,0.00,VWS V14.01,2013-02-06 05:27:00,
2013-02-06 00:30:00,26.1,19.6,29.97,SSW,205,2.0,8.0,76,0.00,,---,0.00,0.00,VWS V14.01,2013-02-06 05:30:00,
2013-02-06 00:57:00,26.6,19.8,29.96,SW,221,3.0,12.0,75,0.00,,---,0.00,0.00,VWS V14.01,2013-02-06 05:57:00,
2013-02-06 01:00:00,26.6,19.8,29.96,SW,221,3.0,12.0,75,0.00,,---,0.00,0.00,VWS V14.01,2013-02-06 06:00:00,
2013-02-06 01:27:00,27.2,20.3,29.97,West,260,12.0,13.0,75,0.00,,---,0.00,0.00,VWS V14.01,2013-02-06 06:27:00,
2013-02-06 01:30:00,27.2,20.3,29.97,West,260,12.0,13.0,75,0.00,,---,0.00,0.00,VWS V14.01,2013-02-06 06:30:00,
2013-02-06 01:57:00,27.2,20.6,29.97,SW,225,6.0,16.0,76,0.00,,---,0.00,0.00,VWS V14.01,2013-02-06 06:57:00,
2013-02-06 02:00:00,27.2,20.6,29.97,SW,225,6.0,16.0,76,0.00,,---,0.00,0.00,VWS V14.01,2013-02-06 07:00:00,
2013-02-06 02:27:00,27.4,20.8,29.98,West,271,4.0,12.0,76,0.00,,---,0.00,0.00,VWS V14.01,2013-02-06 07:27:00,
2013-02-06 02:30:00,27.4,20.8,29.98,West,271,4.0,12.0,76,0.00,,---,0.00,0.00,VWS V14.01,2013-02-06 07:30:00,
2013-02-06 02:57:00,27.8,21.5,29.99,West,270,7.0,11.0,77,0.00,,---,0.00,0.00,VWS V14.01,2013-02-06 07:57:00,
2013-02-06 03:00:00,27.8,21.5,29.99,West,270,7.0,11.0,77,0.00,,---,0.00,0.00,VWS V14.01,2013-02-06 08:00:00,
2013-02-06 03:27:00,27.8,21.5,29.99,WSW,238,7.0,14.0,77,0.00,,---,0.00,0.00,VWS V14.01,2013-02-06 08:27:00,
2013-02-06 03:30:00,27.9,23.1,30.00,SW,221,6.0,10.0,82,0.00,,---,0.00,0.00,VWS V14.01,2013-02-06 08:30:00,
2013-02-06 03:57:00,27.8,22.4,30.00,SW,228,5.0,12.0,80,0.00,,---,0.00,0.00,VWS V14.01,2013-02-06 08:57:00,
2013-02-06 04:00:00,27.8,22.4,30.00,SW,228,5.0,12.0,80,0.00,,---,0.00,0.00,VWS V14.01,2013-02-06 09:00:00,
2013-02-06 04:27:00,27.9,23.1,30.00,SW,221,6.0,10.0,82,0.00,,---,0.00,0.00,VWS V14.01,2013-02-06 09:27:00,
2013-02-06 04:30:00,28.0,24.4,30.03,WSW,242,5.0,13.0,86,0.00,,---,0.00,0.00,VWS V14.01,2013-02-06 09:30:00,
2013-02-06 04:57:00,28.0,24.1,30.02,SW,232,5.0,12.0,85,0.00,,---,0.00,0.00,VWS V14.01,2013-02-06 09:57:00,
2013-02-06 05:00:00,27.6,25.1,30.07,WSW,244,6.0,11.0,90,0.00,,---,0.00,0.00,VWS V14.01,2013-02-06 10:00:00,
2013-02-06 05:27:00,28.0,24.4,30.03,WSW,242,5.0,13.0,86,0.00,,---,0.00,0.00,VWS V14.01,2013-02-06 10:27:00,
2013-02-06 05:30:00,28.0,24.4,30.03,WSW,242,5.0,13.0,86,0.00,,---,0.00,0.00,VWS V14.01,2013-02-06 10:30:00,
2013-02-06 05:57:00,27.6,25.1,30.07,WSW,244,6.0,11.0,90,0.00,,---,0.00,0.00,VWS V14.01,2013-02-06 10:57:00,
2013-02-06 06:00:00,27.6,25.1,30.07,WSW,244,6.0,11.0,90,0.00,,---,0.00,0.00,VWS V14.01,2013-02-06 11:00:00,
2013-02-06 06:27:00,27.5,25.2,30.08,West,267,5.0,11.0,91,0.00,,---,0.00,0.00,VWS V14.01,2013-02-06 11:27:00,
2013-02-06 06:30:00,27.5,25.2,30.08,West,267,5.0,11.0,91,0.00,,---,0.00,0.00,VWS V14.01,2013-02-06 11:30:00,
2013-02-06 06:57:00,28.0,24.4,30.10,West,275,4.0,15.0,86,0.00,,---,0.00,0.00,VWS V14.01,2013-02-06 11:57:00,
2013-02-06 07:00:00,28.0,24.4,30.10,West,275,4.0,15.0,86,0.00,,---,0.00,0.00,VWS V14.01,2013-02-06 12:00:00,
2013-02-06 07:27:00,27.8,23.3,30.12,SSW,193,4.0,16.0,83,0.00,,---,0.00,0.00,VWS V14.01,2013-02-06 12:27:00,
2013-02-06 07:30:00,27.8,23.3,30.12,SSW,193,4.0,16.0,83,0.00,,---,0.00,0.00,VWS V14.01,2013-02-06 12:30:00,
2013-02-06 07:57:00,26.7,23.9,30.15,West,269,9.0,14.0,89,0.00,,---,0.00,9.00,VWS V14.01,2013-02-06 12:57:00,
2013-02-06 08:00:00,26.7,23.9,30.15,West,269,9.0,14.0,89,0.00,,---,0.00,9.00,VWS V14.01,2013-02-06 13:00:00,
2013-02-06 08:27:00,26.7,20.8,30.18,NNW,342,7.0,25.0,78,0.00,,---,0.00,56.00,VWS V14.01,2013-02-06 13:27:00,
2013-02-06 08:30:00,26.7,20.8,30.18,NNW,342,7.0,25.0,78,0.00,,---,0.00,56.00,VWS V14.01,2013-02-06 13:30:00,
2013-02-06 08:57:00,26.5,18.4,30.20,West,279,13.0,18.0,71,0.00,,---,0.00,91.00,VWS V14.01,2013-02-06 13:57:00,
2013-02-06 09:00:00,26.5,18.4,30.20,West,279,13.0,18.0,71,0.00,,---,0.00,91.00,VWS V14.01,2013-02-06 14:00:00,
2013-02-06 09:27:00,26.5,17.4,30.21,NNW,333,8.0,22.0,68,0.00,,---,0.00,239.00,VWS V14.01,2013-02-06 14:27:00,
2013-02-06 09:30:00,26.5,17.4,30.21,NNW,333,8.0,22.0,68,0.00,,---,0.00,239.00,VWS V14.01,2013-02-06 14:30:00,
2013-02-06 09:57:00,26.5,17.4,30.23,NNW,334,7.0,19.0,68,0.00,,---,0.00,185.00,VWS V14.01,2013-02-06 14:57:00,
2013-02-06 10:00:00,26.5,17.4,30.23,NNW,334,7.0,19.0,68,0.00,,---,0.00,185.00,VWS V14.01,2013-02-06 15:00:00,
2013-02-06 10:27:00,24.9,19.0,30.26,NNW,329,15.0,24.0,78,0.00,,---,0.00,179.00,VWS V14.01,2013-02-06 15:27:00,
2013-02-06 10:30:00,24.9,19.0,30.26,NNW,329,15.0,24.0,78,0.00,,---,0.00,179.00,VWS V14.01,2013-02-06 15:30:00,
2013-02-06 10:57:00,24.5,17.7,30.28,NW,316,10.0,22.0,75,0.00,,---,0.00,343.00,VWS V14.01,2013-02-06 15:57:00,
2013-02-06 11:00:00,24.5,17.7,30.28,NW,316,10.0,22.0,75,0.00,,---,0.00,343.00,VWS V14.01,2013-02-06 16:00:00,
2013-02-06 11:27:00,24.9,16.8,30.29,NW,320,5.0,19.0,71,0.00,,---,0.00,316.00,VWS V14.01,2013-02-06 16:27:00,
2013-02-06 11:30:00,24.9,16.8,30.29,NW,320,5.0,19.0,71,0.00,,---,0.00,316.00,VWS V14.01,2013-02-06 16:30:00,
2013-02-06 11:57:00,24.2,16.2,30.30,North,360,11.0,19.0,71,0.00,,---,0.00,276.00,VWS V14.01,2013-02-06 16:57:00,
2013-02-06 12:00:00,24.2,16.2,30.30,North,360,11.0,19.0,71,0.00,,---,0.00,276.00,VWS V14.01,2013-02-06 17:00:00,
2013-02-06 12:27:00,23.9,13.9,30.32,North,351,6.0,24.0,65,0.00,,---,0.00,455.00,VWS V14.01,2013-02-06 17:27:00,
2013-02-06 12:30:00,23.9,13.9,30.32,North,351,6.0,24.0,65,0.00,,---,0.00,455.00,VWS V14.01,2013-02-06 17:30:00,
2013-02-06 12:57:00,24.8,14.0,30.33,NW,321,7.0,17.0,63,0.00,,---,0.00,512.00,VWS V14.01,2013-02-06 17:57:00,
2013-02-06 13:00:00,24.8,14.0,30.33,NW,321,7.0,17.0,63,0.00,,---,0.00,512.00,VWS V14.01,2013-02-06 18:00:00,
2013-02-06 13:27:00,23.8,10.8,30.33,NW,313,10.0,18.0,57,0.00,,---,0.00,485.00,VWS V14.01,2013-02-06 18:27:00,
2013-02-06 13:30:00,23.8,10.8,30.33,NW,313,10.0,18.0,57,0.00,,---,0.00,485.00,VWS V14.01,2013-02-06 18:30:00,
2013-02-06 13:57:00,24.1,9.9,30.34,NW,325,8.0,17.0,54,0.00,,---,0.00,450.00,VWS V14.01,2013-02-06 18:57:00,
2013-02-06 14:00:00,24.1,9.9,30.34,NW,325,8.0,17.0,54,0.00,,---,0.00,450.00,VWS V14.01,2013-02-06 19:00:00,
2013-02-06 14:27:00,24.6,9.9,30.35,NNW,344,10.0,16.0,53,0.00,,---,0.00,403.00,VWS V14.01,2013-02-06 19:27:00,
2013-02-06 14:30:00,24.6,9.9,30.35,NNW,344,10.0,16.0,53,0.00,,---,0.00,403.00,VWS V14.01,2013-02-06 19:30:00,
2013-02-06 14:57:00,24.7,10.0,30.36,NW,309,2.0,17.0,53,0.00,,---,0.00,346.00,VWS V14.01,2013-02-06 19:57:00,
2013-02-06 15:00:00,24.7,10.0,30.36,NW,309,2.0,17.0,53,0.00,,---,0.00,346.00,VWS V14.01,2013-02-06 20:00:00,
2013-02-06 15:27:00,24.7,10.4,30.37,NW,317,8.0,14.0,54,0.00,,---,0.00,279.00,VWS V14.01,2013-02-06 20:27:00,
2013-02-06 15:30:00,24.7,10.4,30.37,NW,317,8.0,14.0,54,0.00,,---,0.00,279.00,VWS V14.01,2013-02-06 20:30:00,
2013-02-06 15:57:00,24.6,10.8,30.37,NNW,346,6.0,13.0,55,0.00,,---,0.00,193.00,VWS V14.01,2013-02-06 20:57:00,
2013-02-06 16:00:00,24.6,10.8,30.37,NNW,346,6.0,13.0,55,0.00,,---,0.00,193.00,VWS V14.01,2013-02-06 21:00:00,
2013-02-06 16:27:00,24.2,10.8,30.40,NW,322,7.0,11.0,56,0.00,,---,0.00,100.00,VWS V14.01,2013-02-06 21:27:00,
2013-02-06 16:30:00,24.2,10.8,30.40,NW,322,7.0,11.0,56,0.00,,---,0.00,100.00,VWS V14.01,2013-02-06 21:30:00,
2013-02-06 16:57:00,23.4,10.8,30.39,NW,323,7.0,11.0,58,0.00,,---,0.00,28.00,VWS V14.01,2013-02-06 21:57:00,
2013-02-06 17:00:00,23.4,10.8,30.39,NW,323,7.0,11.0,58,0.00,,---,0.00,28.00,VWS V14.01,2013-02-06 22:00:00,
2013-02-06 17:27:00,22.4,11.0,30.39,WNW,294,5.0,9.0,61,0.00,,---,0.00,5.00,VWS V14.01,2013-02-06 22:27:00,
2013-02-06 17:30:00,22.4,11.0,30.39,WNW,294,5.0,9.0,61,0.00,,---,0.00,5.00,VWS V14.01,2013-02-06 22:30:00,
2013-02-06 17:57:00,21.7,11.4,30.40,NW,322,3.0,7.0,64,0.00,,---,0.00,0.00,VWS V14.01,2013-02-06 22:57:00,
2013-02-06 18:00:00,21.7,11.4,30.40,NW,322,3.0,7.0,64,0.00,,---,0.00,0.00,VWS V14.01,2013-02-06 23:00:00,
2013-02-06 18:27:00,20.9,11.3,30.41,NW,326,2.0,6.0,66,0.00,,---,0.00,0.00,VWS V14.01,2013-02-06 23:27:00,
2013-02-06 18:30:00,20.9,11.3,30.41,NW,326,2.0,6.0,66,0.00,,---,0.00,0.00,VWS V14.01,2013-02-06 23:30:00,
2013-02-06 18:57:00,20.5,11.3,30.42,NW,326,0.0,3.0,67,0.00,,---,0.00,0.00,VWS V14.01,2013-02-06 23:57:00,
2013-02-06 19:00:00,20.5,11.3,30.42,NW,326,0.0,3.0,67,0.00,,---,0.00,0.00,VWS V14.01,2013-02-07 00:00:00,
2013-02-06 19:27:00,19.7,11.2,30.43,NW,326,0.0,2.0,69,0.00,,---,0.00,0.00,VWS V14.01,2013-02-07 00:27:00,
2013-02-06 19:30:00,19.7,11.2,30.43,NW,326,0.0,2.0,69,0.00,,---,0.00,0.00,VWS V14.01,2013-02-07 00:30:00,
2013-02-06 19:57:00,18.9,11.1,30.45,NW,326,0.0,1.0,71,0.00,,---,0.00,0.00,VWS V14.01,2013-02-07 00:57:00,
2013-02-06 20:00:00,18.9,11.1,30.45,NW,326,0.0,1.0,71,0.00,,---,0.00,0.00,VWS V14.01,2013-02-07 01:00:00,
2013-02-06 20:27:00,18.0,11.4,30.46,NW,324,1.0,3.0,75,0.00,,---,0.00,0.00,VWS V14.01,2013-02-07 01:27:00,
2013-02-06 20:30:00,18.0,11.4,30.46,NW,324,1.0,3.0,75,0.00,,---,0.00,0.00,VWS V14.01,2013-02-07 01:30:00,
2013-02-06 20:57:00,17.7,11.4,30.48,NW,324,0.0,1.0,76,0.00,,---,0.00,0.00,VWS V14.01,2013-02-07 01:57:00,
2013-02-06 21:00:00,17.7,11.4,30.48,NW,324,0.0,1.0,76,0.00,,---,0.00,0.00,VWS V14.01,2013-02-07 02:00:00,
2013-02-06 21:27:00,17.6,11.6,30.47,NW,324,0.0,1.0,77,0.00,,---,0.00,0.00,VWS V14.01,2013-02-07 02:27:00,
2013-02-06 21:30:00,17.6,11.6,30.47,NW,324,0.0,1.0,77,0.00,,---,0.00,0.00,VWS V14.01,2013-02-07 02:30:00,
2013-02-06 21:57:00,17.5,12.1,30.48,NW,324,0.0,1.0,79,0.00,,---,0.00,0.00,VWS V14.01,2013-02-07 02:57:00,
2013-02-06 22:00:00,17.5,12.1,30.48,NW,324,0.0,1.0,79,0.00,,---,0.00,0.00,VWS V14.01,2013-02-07 03:00:00,
2013-02-06 22:27:00,16.9,11.8,30.48,NW,325,0.0,2.0,80,0.00,,---,0.00,0.00,VWS V14.01,2013-02-07 03:27:00,
2013-02-06 22:30:00,16.9,11.8,30.48,NW,325,0.0,2.0,80,0.00,,---,0.00,0.00,VWS V14.01,2013-02-07 03:30:00,
2013-02-06 22:57:00,16.1,11.6,30.48,NW,325,0.0,2.0,82,0.00,,---,0.00,0.00,VWS V14.01,2013-02-07 03:57:00,
2013-02-06 23:00:00,16.1,11.6,30.48,NW,325,0.0,2.0,82,0.00,,---,0.00,0.00,VWS V14.01,2013-02-07 04:00:00,
2013-02-06 23:27:00,15.0,10.8,30.49,NW,325,0.0,1.0,83,0.00,,---,0.00,0.00,VWS V14.01,2013-02-07 04:27:00,
2013-02-06 23:30:00,15.0,10.8,30.49,NW,325,0.0,1.0,83,0.00,,---,0.00,0.00,VWS V14.01,2013-02-07 04:30:00,
2013-02-06 23:57:00,15.3,11.9,30.48,NW,325,0.0,1.0,86,0.00,,---,0.00,0.00,VWS V14.01,2013-02-07 04:57:00,